Tracking 19283 objects as of 17-Nov-2018
HD Live streaming from Space Station
objects crossing your sky now

COSMOS 342

Track COSMOS 342 now!
10-day predictions
COSMOS 342 is classified as:


NORAD ID: 4389
Int'l Code: 1970-036G
Perigee: 1,316.8 km
Apogee: 1,475.4 km
Inclination: 74.0 °
Period: 113.5 minutes
Semi major axis: 7767 km
RCS: 0.743 m2 (medium)
Launch date: April 25, 1970
Source: Commonwealth of Independent States (former USSR) (CIS)
Launch site: PLESETSK MISSILE AND SPACE COMPLEX (PKMTR)
aabbcc
Your satellite tracking list
Your tracking list is empty




NASA's NSSDC Master Catalog

Two Line Element Set (TLE):
1  4389U 70036G   18320.20436859 -.00000016 +00000-0 +50142-5 0  9996
2  4389 074.0286 219.7694 0102121 240.9075 233.4853 12.68279857247922
Source of the keplerian elements: AFSPC